Regional Weather Roundup
Issued by NWS

Home | Current Version | Previous Version | Text Only | Print | Product List | Glossary On
Versions: 1 2 3 4 5 6 7 8 9 10 11 12 13 14 15 16 17 18 19 20 21 22 23 24 25 26 27 28 29 30 31 32 33 34 35 36 37 38 39 40 41 42 43 44 45 46 47 48 49 50
000
ASUS43 KMPX 241401
RWRMN
WEATHER ROUNDUP FOR MINNESOTA
NATIONAL WEATHER SERVICE TWIN CITIES/CHANHASSEN MN
900 AM CDT SUN SEP 24 2017


NOTE: "FAIR" INDICATES FEW OR NO CLOUDS BELOW 12,000 FEET WITH NO
SIGNIFICANT WEATHER AND/OR OBSTRUCTIONS TO VISIBILITY. N/A MEANS
CURRENT SKY AND/OR WEATHER CONDITIONS ARE NOT AVAILABLE.

MNZ060>063-068>070-241500-
   Twin Cities Metro

CITY           SKY/WX    TMP DP  RH WIND       PRES   REMARKS
TWIN CITIES    PTSUNNY   74  65  73 S7        29.95S
ST PAUL        MOSUNNY   72  65  78 SE13      29.96R
CRYSTAL        MOSUNNY   74  62  66 S8        29.93S
BLAINE         PTSUNNY   75  66  73 S9        29.94S
LAKEVILLE      MOSUNNY   70  63  78 S3        29.96S
EDEN PRAIRIE   MOSUNNY   74  65  73 S6        29.94R
SOUTH ST PAUL  MOSUNNY   73  63  71 S6        29.96R
LAKE ELMO      FAIR      72  64  78 S7        29.98R
$$
MNZ001>005-007-008-013>017-022>024-027-028-241500-
   Northwest Minnesota

CITY           SKY/WX    TMP DP  RH WIND       PRES   REMARKS
BEMIDJI        CLOUDY    61  61  99 S5        29.87S
HALLOCK        LGT RAIN  52  52 100 N9        29.89F
ROSEAU         RAIN      54  48  82 N7        29.88F
THIEF RVR FALL LGT RAIN  55  54  94 N10       29.86F
CROOKSTON      RAIN      54  54 100 N10       29.85F
FOSSTON        CLOUDY    57  57 100 CALM      29.85S
DETROIT LAKES  CLOUDY    63  61  94 S8        29.86F FOG
MOORHEAD       CLOUDY    55  55 100 N5        29.85S FOG
PARK RAPIDS    CLOUDY    64  62  93 S12       29.87F
MAHNOMEN       CLOUDY    61  61  99 S6        29.84F
$$
MNZ006-009>011-018-025>026-241500-
   North Central Minnesota

CITY           SKY/WX    TMP DP  RH WIND       PRES   REMARKS
BAUDETTE       LGT RAIN  58  58 100 E5        29.87S
FLAG ISLAND    LGT RAIN  55  54  94 NE9       29.87F
INTL FALLS     CLOUDY    61  59  93 SE7       29.87F
WASKISH        CLOUDY    57  57 100 CALM      29.87F
BIG FORK       CLOUDY    64  63  94 S6        29.88S
LONGVILLE      CLOUDY    63  63 100 S5        29.88F
GRAND RAPIDS   CLOUDY    64  63  96 SE8       29.91S
CRANE LAKE     PTSUNNY   63  63 100 CALM      29.91F
ORR            MOSUNNY   64  61  88 SE8G17    29.86F
COOK           MOSUNNY   66  64  94 SE9       29.90F
WALKER         LGT RAIN  63  62  97 S5        29.88R
$$
MNZ012-019>021-037-241500-
   Northeast Minnesota

CITY           SKY/WX    TMP DP  RH WIND       PRES   REMARKS
DULUTH         FOG       64  64 100 SE9       29.95F VSB 3/4
ELY            CLOUDY    68  66  94 S8        29.93S
HIBBING        MOSUNNY   63  63 100 SE6       29.92S
EVELETH        SUNNY     67  64  90 SE7       29.93F
DULUTH HARBOR  FOG       63  61  94 NE8       29.96S VSB<1/4
GRAND MARAIS     N/A     64  63  96 NE7       29.96F
$$
MNZ029>031-032-039>041-046>048-054>057-064-241500-
   West Central Minnesota

CITY           SKY/WX    TMP DP  RH WIND       PRES   REMARKS
FERGUS FALLS   CLOUDY    63  63 100 CALM      29.84F
WHEATON        CLOUDY    63  61  94 SE7       29.85F
ALEXANDRIA     PTSUNNY   66  64  93 S8        29.89S
ELBOW LAKE     CLOUDY    62  62 100 E6        29.85F FOG
WADENA         CLOUDY    63  63 100 CALM      29.87S FOG
GLENWOOD       MOSUNNY   70  66  88 S13       29.88S
APPLETON       PTSUNNY   64  61  88 SE6       29.85S
BENSON         MOSUNNY   66  63  88 SW8       29.88S
ORTONVILLE     CLOUDY    61  59  94 N6        29.84F
MADISON        PTSUNNY   64  64 100 SE5       29.85F
WILLMAR        FAIR      70  66  88 S10       29.90S
$$
MNZ033>034-036-042>043-049>051-058-059-241500-
   Central Minnesota

CITY           SKY/WX    TMP DP  RH WIND       PRES   REMARKS
ST CLOUD       SUNNY     68  67  96 SE8       29.91S
SAUK CENTRE    FAIR      66  65  94 S9        29.89S
PAYNESVILLE    SUNNY     68  65  92 S8        29.90F
AITKIN         CLOUDY    66  64  94 S14G20    29.89S
PINE RIVER     CLOUDY    61  61 100 S6        29.92S
BRAINERD       CLOUDY    69  65  86 S12       29.89S
STAPLES        PTSUNNY   63  63 100 S3        29.88S
LITTLE FALLS   MOSUNNY   64  63  94 SE9       29.89F
LITCHFIELD     CLOUDY    72  70  94 S5        29.91S
BUFFALO        SUNNY     73  64  75 SE8       29.94S
MAPLE LAKE     SUNNY     72  67  85 S7        29.93S
HUTCHINSON     CLOUDY    72  67  85 S7        29.92F
$$
MNZ037-044-045-052-053-241500-
   East Central Minnesota

CITY           SKY/WX    TMP DP  RH WIND       PRES   REMARKS
PRINCETON      CLOUDY    72  70  94 S8        29.92S
MORA           SUNNY     64  64 100 S3        29.94F
RUSH CITY      SUNNY     70  64  81 S6        29.94S
MOOSE LAKE     SUNNY     68  63  83 S5        29.92S
HINCKLEY       FAIR      72  66  83 S8        29.94S
CLOQUET        MOSUNNY   66  63  88 E3        29.95S FOG
MCGREGOR       MOSUNNY   68  64  88 S8        29.92S
$$
MNZ071>073-080-081-089-090-097-098-241500-
   Southwest Minnesota

CITY           SKY/WX    TMP DP  RH WIND       PRES   REMARKS
MONTEVIDEO     PTSUNNY   64  64 100 S8        29.86S
GRANITE FALLS  MOSUNNY   67  65  91 SE8       29.89S
CANBY          PTSUNNY   62  61  97 E5        29.86F
MARSHALL       MOSUNNY   69  65  86 S10       29.87F
REDWOOD FALLS  MOSUNNY   70  64  81 S13       29.89F
OLIVIA         SUNNY     70  64  83 S10       29.89S
PIPESTONE      MOSUNNY   70  64  83 S10       29.90R
WORTHINGTON    CLOUDY    70  65  84 S9        29.93S
JACKSON        SUNNY     72  64  78 S9        29.95S
TRACY          MOSUNNY   70  68  92 S13       29.90S
SLAYTON        CLOUDY    65  58  80 SE6       29.92S HAZE
$$
MNZ065>067-074>077-082>085-091>093-241500-
   South Central Minnesota

CITY           SKY/WX    TMP DP  RH WIND       PRES   REMARKS
MANKATO        SUNNY     72  65  78 S9        29.95S
NEW ULM        SUNNY     70  64  83 S10G16    29.92S
ST JAMES       SUNNY     72  66  83 S10       29.94S
FAIRMONT       SUNNY     71  65  81 S13       29.95F
FARIBAULT      MOSUNNY   72  64  78 S7        29.98S
OWATONNA       SUNNY     72  64  78 S9        29.98S
WASECA         MOSUNNY   72  63  73 S9        29.98S
ALBERT LEA     SUNNY     75  64  69 S8        29.99S
$$
MNZ078>079-086>088-094>096-241500-
   Southeast Minnesota

CITY           SKY/WX    TMP DP  RH WIND       PRES   REMARKS
ROCHESTER      SUNNY     72  64  76 S8        30.01S
RED WING       MOSUNNY   75  61  60 E6        29.96S
STANTON        PTSUNNY   75  65  69 S8        29.96R
DODGE CENTER   SUNNY     73  63  68 S9        30.00S
WINONA         SUNNY     75  64  69 SE7       30.00F
AUSTIN         SUNNY     72  63  73 S5        30.00S
PRESTON        SUNNY     71  62  72 S6        30.03F
$$
ABBREVIATIONS USED IN REMARKS
   TC - TEMPERATURES IN CELSIUS
  WCI - WIND CHILL INDEX
   HX - HEAT INDEX
  VSB - VISIBILITY
$$



USA.gov is the U.S. government's official web portal to all federal, state and local government web resources and services.